Погода Казалы

Погода Казалы : погода сейчас, прогноз погоды и архив. Всё, что Вы хотите узнать о погоде Казалы!

Хотите узнать прогноз погоды Казалы? Тогда Вам сюда: Погода Казалы

Поиск расширенной информации на нашем сайте:

Другие новости

Новости СМИ2

Главная страница сайта

Новости сайта

02.10.2013

Напоминаем, что на нашем новом сайте вы можете получить высокодетализированные прогнозы погоды по пунктам России, СНГ и мира (включающие важные для авиации метеовеличины, такие как направление и скорость ветра, видимость, явления погоды, количество и форма облачности, нижняя и верхняя граница облачности), а также ознакомиться с разнообразными материалами по авиационной метеорологии и подборкой полезных ссылок на эту тему.

Сайт Метеоцентр.Азия посвящён разработке технологий оптимизации авиаметеорологического обслуживания, включая проектирование и перспективное создание нескольких автоматизированных авиаметеорологических систем:
- система выпуска высокодетальных прогностических карт явлений погоды для нижнего воздушного пространства по России и ближнему зарубежью;
- система верификации прогнозов TAF (выпускаемых синоптиками официальных АМСГ РФ и ближнего зарубежья) и AUTOTAF (выпускаемых сайтом Метеоцентр.Азия) - выявление ошибок, онлайн-сопоставление с фактической погодой METAR, автоматическое внесение коррективов в прогнозы при резком отклонении фактической погоды от прогноза, подсчёт оправдываемости прогнозов по элементам и в целом;
- система обработки, анализа и отображения авиаметеорологической информации для применения провайдерами метеорологической информации.


Погода Казалы - сегодня

Время (UTC), дата Ветер
(°,м/с) 
Видим.   Явления Облачность Т
(°С)
Тd
(°С)
f(%) Тe
(°С)
Pmin
(гПа)
dP
(гПа)
Po
(мм)
O2
(г/м3)
Тmin Tmax R s Состояние
почвы
00 22.05.17 тихо ()   20000 м    8/0 средняя, верхняя 
[Ac trans|Ci fib]
+17.5 +10.4 63 +19  1001.6  -1.2  745  280           
03 22.05.17 тихо ()   20000 м    9/5 600 м кучево-дожд., средняя 
[Cb calv|Ac As]
+21.5 +11.9 54 +25  1001.3  -0.1  745  276           
06 22.05.17 тихо ()   20000 м    10/0 средняя 
[Ac As]
+26.1 +12.5 43 +31  1000.1  -1.1  744  271  +17.5         
09 22.05.17 200 (Ю) 20000 м    9/0 средняя 
[Ac As]
+29.4 +9.4 29 +30  999.3  -0.8  744  269           
12 22.05.17 200 (Ю) 20000 м    8/0 средняя 
[Ac As]
+30.5 +9 26 +31  998.3  -1  743  268           
15 22.05.17 270 (З) 8{20}  20000 м    3/0 верхняя 
[Ci fib]
+22.6 +13.2 55 +28  1001.5  3.1  745  275    +32.1       
18 22.05.17 270 (З) 20000 м    ясно 
+17.5 +12.5 72 +22  1004.8  3.1  748  281    +32.1       
21 22.05.17 250 (З) 20000 м    ясно 
+16 +13.7 86 +23  1005.7  0.9  748  282           
00 23.05.17 250 (З) 20000 м    ясно 
+15.4 +13 86 +20  1007.2  1.3  749  283           
03 23.05.17 250 (З) 20000 м    ясно 
+18.1 +12.7 71 +23  1009.1  2.1  751  281           
06 23.05.17 250 (З) 20000 м    3/3 1000 м 
[Cu hum]
+22.9 +11.3 48 +26  1010.8  1.8  752  278  +15         
09 23.05.17 250 (З) 10{17}  20000 м    5/5 600 м кучево-дожд. 
[Cb calv]
+26.5 +9.8 35 +27  1011.6  0.9  753  275           
12 23.05.17 250 (З) 20000 м    5/5 600 м кучево-дожд. 
[Cb calv]
+26.9 +8.5 31 +27  1011.8  0.2  753  275           
15 23.05.17 270 (З) 20000 м    3/3 1000 м 
[Cu hum]
+24.8 +8.9 36 +25  1011.9  753  277    +27.2       
18 23.05.17 тихо ()   20000 м    ясно 
+17.9 +10.9 64 +20  1013.1  754  283    +27.2       
21 23.05.17 тихо ()   20000 м    ясно 
+16.1 +12.1 77 +20  1012.6  -0.4  754  284           
00 24.05.17 тихо ()   20000 м    ясно 
+14.5 +10.7 78 +16  1013  0.2  754  286           
03 24.05.17 тихо ()   20000 м    4/0 верхняя 
[Ci fib]
+20.7 +10.9 53 +23  1013.8  0.9  754  281           
06 24.05.17 тихо ()   20000 м    6/0 верхняя 
[Ci fib]
+26.4 +9.3 34 +27  1013.9  0.3  755  276  +14.4         
09 24.05.17 230 (ЮЗ) 20000 м    6/0 средняя 
[Ac trans]
+30 +7.7 25 +30  1013  -0.9  754  272           
12 24.05.17 290 (З) 20000 м    8/8 600 м кучево-дожд. 
[Cb calv]
+29 +6.4 24 +29  1012.4  -0.5  754  273           
15 24.05.17 тихо ()   10 км  слаб. ливневой дождь  10/10 600 м кучево-дожд. 
[Cb calv]
+25.9 +15.6 53 +35  1013.8  1.3  755  274    +30.4  0.0     
18 24.05.17 020 (С) 20000 м    10/10 600 м кучево-дожд. 
[Cb calv]
+21.5 +9.4 46 +22  1014.1  0.2  755  280    +30.4  0.0     
21 24.05.17 050 (СВ) 20000 м    ясно 
+17.8 +8.2 53 +19  1015.3  1.1  755  284           
00 25.05.17 050 (СВ) 20000 м    4/0 средняя 
[Ac cast]
+15.8 +6.1 52 +15  1015.5  755  287           
Время (UTC), дата Ветер
(°,м/с) 
Видим.   Явления Облачность Т
(°С)
Тd
(°С)
f(%) Тe
(°С)
Pmin
(гПа)
dP
(гПа)
Po
(мм)
O2
(г/м3)
Тmin Tmax R s Состояние
почвы

Для получения пояснительной информации подведите курсор к названию столбца.

ПОГОДА Казалы - архив

Всё, что Вы хотите узнать о погоде Казалы - удобно и подробно!

Выберите нужную дату (начиная с 1 января 2015* года) и нажмите кнопку "Найти".
Будут отображены архивные сводки погоды по пункту Казалы, начиная с указанной даты.


Отображать данные в формате CSV (для использования в таблицах Excel)


Внимание! Наш архив погоды предназначен исключительно для личного некоммерческого использования в познавательных целях. Если Вам необходимы официальные справки о состоянии погоды (для производственных, юридических, коммерческих и т.п. целей), обращайтесь в органы Росгидромета.

*Примечание: данная дата относится к архиву по метеостанциям СССР (Россия, СНГ, Балтия).
Архив по метеостанциям Зарубежной Европы и Азии (кроме Китая) хранится 10 дней, по другим регионам земного шара (Китай, Африка, Америка, Австралия, Океания) - 1 день.

Казалы - район местоположения метеостанции


Название, широта, долгота, высота метеостанции:
Казалы (Казалинск) 45.8°ш. 62.1°д. 68 м над ур. моря [Казахстан]

Дополнительная информация

В oтличие oт бoльшинства пoгoдных сайтoв мы публикуем пoдрoбную метеoинфoрмацию в детальнoм прoфессиoнальнoм фoрмате.

Характеристики температуры и влажнoсти вoздуха измеряются на высoте 2 м в тени вдали oт зданий и деревьев.
Скoрoсть ветра измеряется на высoте 10 м (на урoвне рoста челoвека скoрoсть ветра ниже в 1.5-2 раза). Если метеoстанция нахoдится в гoрoде или в лесу, тo скoрoсть ветра занижена на 2-4 м/с пo сравнению с oткрытым местoм. Скoрoсть ветра над акватoриями крупных рек и oзёр, а также на вершинах хoлмoв на 2-5 м/с выше, чем в oбычных услoвиях.
Атмoсфернoе давление в разных тoчках местнoсти мoжет значительнo oтличаться oт давления на метеoстанции, в зависимoсти oт услoвий рельефа (при пoдъёме на 10 м давление пoнижается примернo на 1 мм рт.ст.).